www.pogodaiklimat.ru
ПОГОДА в Яунде
Время
(UTC), дата
07 14.04
08 14.04
09 14.04
10 14.04
11 14.04
12 14.04
13 14.04
14 14.04
15 14.04
16 14.04
17 14.04
18 14.04
19 14.04
20 14.04
21 14.04
22 14.04
23 14.04
00 15.04
01 15.04
03 15.04
04 15.04
05 15.04
06 15.04
07 15.04
08 15.04
09 15.04
10 15.04
11 15.04
12 15.04
13 15.04
14 15.04
15 15.04
16 15.04
17 15.04
18 15.04
19 15.04
20 15.04
21 15.04
22 15.04
23 15.04
00 16.04
02 16.04
03 16.04
04 16.04
05 16.04
06 16.04
08 16.04
09 16.04
10 16.04
11 16.04
12 16.04
13 16.04
14 16.04
15 16.04
16 16.04
17 16.04
18 16.04
19 16.04
20 16.04
21 16.04
22 16.04
23 16.04
00 17.04
01 17.04
02 17.04
03 17.04
04 17.04
05 17.04
06 17.04
09 17.04
12 17.04
15 17.04
18 17.04
19 17.04
20 17.04
21 17.04
22 17.04
01 18.04
02 18.04
03 18.04
04 18.04
05 18.04
06 18.04
07 18.04
08 18.04
09 18.04
10 18.04
11 18.04
12 18.04
13 18.04
14 18.04
15 18.04
16 18.04
17 18.04
18 18.04
19 18.04
20 18.04
21 18.04
22 18.04
23 18.04
00 19.04
02 19.04
03 19.04
04 19.04
05 19.04
06 19.04
07 19.04
08 19.04
09 19.04
10 19.04
11 19.04
12 19.04
13 19.04
14 19.04
15 19.04
16 19.04
17 19.04
18 19.04
19 19.04
20 19.04
21 19.04
22 19.04
23 19.04
00 20.04
01 20.04
02 20.04
03 20.04
04 20.04
05 20.04
06 20.04
07 20.04
08 20.04
09 20.04
10 20.04
11 20.04
12 20.04
13 20.04
14 20.04
15 20.04
16 20.04
17 20.04
19 20.04
20 20.04
21 20.04
22 20.04
23 20.04
00 21.04
01 21.04
02 21.04
03 21.04
05 21.04
Ветер
(напр.,м/с)
Видим. Явления Облачность Т
(С)
Тd
(С)
f
(%)
Тe
(С)
Тes
(С)
Комфортность P
(гПа)
Po
(гПа)
Тmin
(С)
Tmax
(С)
R
(мм)
R24
(мм)
S
(см)
Ю 1 8000 м 2/2 330 м +21.0 +20.0 94 +27 +31 душно 1018.0 939.5
ЮВ 2 8000 м 2/2 330 м +22.0 +20.0 88 +28 +36 душно 1019.0 940.6
ЮВ 1 8000 м ясно +23.6 +21.3 87 +30 +48 очень
душно
1019.0 937.6
ЮВ 2 8000 м 2/2 330 м +25.0 +21.0 78 +31 +47 очень
душно
1018.0 940.5
нст 1 8000 м 2/2 330 м +26.0 +21.0 74 +33 +53 опасность
солнечного
удара
1017.0 939.8
ЮВ 2 8000 м ясно +27.0 +21.1 70 +34 +55 опасность
солнечного
удара
1016.0 934.9
нст 1 8000 м 2/2 330 м +28.0 +20.0 62 +34 +51 опасность
солнечного
удара
1014.0 937.5
штиль 0 8000 м 2/2 390 м +31.0 +20.0 52 +37 +51 опасность
солнечного
удара
1013.0 937.3
ЮВ 3 10 км ясно +28.5 +21.8 67 +37 +42 очень
душно
1013.0 931.9
нст 1 10 км 2/2 390 м +27.0 +22.0 74 +35 +37 очень
душно
1012.0 935.5
СВ 2 10 км 2/2 390 м +27.0 +22.0 74 +35 +35 очень
душно
1012.0 935.5
С 1 10 км 2/2 300 м +25.0 +20.0 74 +31 +31 очень
душно
1013.0 935.9
СВ 1 10 км 2/2 300 м +24.0 +20.0 78 +29 +29 душно 1014.0 936.5
штиль 0 10 км 2/2 300 м +24.0 +21.0 83 +30 +30 очень
душно
1015.0 937.5
штиль 0 10 км 2/2 180 м +22.0 +21.0 94 +28 +28 душно 1016.0 937.9
штиль 0 10 км 2/2 180 м +21.0 +20.0 94 +26 +26 душно 1016.0 937.6
Ю 1 8000 м 2/2 180 м +21.0 +20.0 94 +27 +27 душно 1016.0 937.6
штиль 0 8000 м 2/2 180 м +21.0 +20.0 94 +26 +26 душно 1015.0 936.7
штиль 0 8000 м 2/2 180 м +21.0 +20.0 94 +26 +26 душно 1015.0 936.7
С 1 8000 м 2/2 180 м +21.0 +20.0 94 +27 +27 душно 1015.0 936.7
штиль 0 8000 м 2/2 180 м +21.0 +20.0 94 +26 +26 душно 1015.0 936.7
штиль 0 6000 м 2/2 180 м +21.0 +20.0 94 +26 +26 душно 1015.0 936.7
штиль 0 5000 м 10/0 180 м
[Ac trans]
+22.0 +21.0 94 +28 +29 душно 1016.0 937.9
нст 1 10 км 2/2 180 м +23.0 +21.0 89 +31 +35 очень
душно
1017.0 939.1
ЮЗ 2 10 км 8/8 390 м +25.0 +23.0 89 +33 +35 очень
душно
1017.0 939.7
Ю 2 10 км ясно +27.1 +23.1 79 +36 +52 опасность
солнечного
удара
1017.0 935.8
З 2 10 км 8/8 480 м +28.0 +23.0 74 +37 +41 очень
душно
1016.0 939.5
СЗ 2 10 км 8/8 600 м +29.0 +23.0 70 +39 +43 очень
душно
1015.0 938.8
ЮВ 2 10 км ясно +30.9 +22.5 61 +40 +61 опасность
солнечного
удара
1014.0 933.4
В 2 10 км 8/8 600 м +31.0 +22.0 59 +40 +43 очень
душно
1013.0 937.4
нст 1 10 км 8/8 600 м +32.0 +22.0 56 +41 +44 опасность
перегрева
1012.0 936.7
ЮВ 3 10 км ясно +32.6 +21.1 51 +40 +46 очень
душно
1011.0 930.1
В 2 10 км 5/5 600 м +32.0 +22.0 56 +41 +42 опасность
перегрева
1010.0 934.9
В 1 8000 м 2/2 600 м +30.0 +21.0 59 +38 +38 очень
душно
1010.0 934.4
штиль 0 8000 м гроза без осадков 2/2 600 м
[Cb]
+29.0 +22.0 66 +37 +37 очень
душно
1011.0 935.1
нст 1 8000 м 2/2 600 м +28.0 +22.0 70 +36 +36 очень
душно
1013.0 936.7
З 2 8000 м гроза без осадков 2/2 480 м
[Cb]
+26.0 +23.0 84 +35 +35 очень
душно
1014.0 937.2
нст 1 8000 м гроза без осадков ясно +25.0 +23.0 89 +33 +33 очень
душно
1014.0 933.4
ЮЗ 3 8000 м гроза без осадков 2/2 390 м
[Cb]
+25.0 +23.0 89 +33 +33 очень
душно
1014.0 936.9
С 5 8000 м гроза без осадков 2/2 390 м
[Cb]
+24.0 +22.0 89 +31 +31 очень
душно
1015.0 937.5
СВ 6 6000 м ясно +21.7 1013.8 934.9
нст 1 н/о гроза, ливневой дождь 8/8 180 м
[Cb]
+21.0 +21.0 100 +28 +28 очень
душно
1014.0 935.8
З 1 7000 м гроза, ливневой дождь ясно +21.0 +20.0 94 +27 +27 душно 1013.0 932.5
штиль 0 н/о гроза, ливневой дождь 8/8 180 м
[Cb]
1013.0
штиль 0 н/о гроза, ливневой дождь 8/8 180 м
[Cb]
+21.0 +20.0 94 +26 +26 душно 1014.0 935.8
Ю 1 5000 м слаб. дождь {гроза} 10/4 150 м
[St Ac As]
+21.0 +20.0 94 +27 +27 душно 1014.0 935.8 23 23.0
штиль 0 8000 м 2/2 390 м +24.0 +22.0 89 +31 +42 очень
душно
1015.0 937.5
нст 1 7000 м 9/4 300 м
[Sc Ac cuf]
+26.0 +23.0 84 +35 +49 очень
душно
1015.0 938.1
нст 1 8000 м 2/2 600 м +28.0 +24.0 79 +39 +57 опасность
солнечного
удара
1015.0 938.6
Ю 2 10 км 5/5 600 м +29.0 +23.0 70 +39 +50 очень
душно
1014.0 937.9
ЮВ 3 10 км 6/5 400 м
[Cu med, cong Ac trans Ci fib]
+29.0 +23.0 70 +39 +42 очень
душно
1013.0 937.0
Ю 4 10 км 8/8 600 м +29.0 +22.0 66 +37 +40 очень
душно
1013.0 936.9
Ю 3 10 км 8/8 600 м +29.0 +23.0 70 +39 +41 очень
душно
1012.0 936.1
Ю 3 10 км ясно +28.6 +22.6 70 +38 +43 очень
душно
1011.0 930.7
ЮЗ 2 10 км 8/8 600 м +28.0 +23.0 74 +37 +38 очень
душно
1011.0 934.9
нст 1 10 км 2/2 600 м 1011.0
З 2 10 км гроза без осадков 2/2 600 м
[Cb]
+28.0 +23.0 74 +37 +37 очень
душно
1012.0 935.8
нст 1 10 км гроза без осадков 2/2 480 м
[Cb]
+25.0 +22.0 83 +32 +32 очень
душно
1013.0 935.9
штиль 0 10 км гроза без осадков 2/2 480 м
[Cb]
+24.0 +22.0 89 +31 +31 очень
душно
1014.0 936.6
нст 1 10 км гроза без осадков 2/2 480 м
[Cb]
+24.0 +22.0 89 +31 +31 очень
душно
1015.0 937.5
штиль 0 10 км гроза без осадков 2/2 480 м
[Cb]
+24.0 +22.0 89 +31 +31 очень
душно
1015.0 937.5
Ю 2 10 км гроза без осадков 8/8 180 м
[Cb]
+22.0 +21.0 94 +28 +28 душно 1015.0 937.0
штиль 0 10 км гроза без осадков 8/8 180 м
[Cb]
+22.0 +21.0 94 +28 +28 душно 1014.0 936.1
штиль 0 10 км гроза без осадков 8/8 180 м
[Cb]
+22.0 +21.0 94 +28 +28 душно 1013.0 935.1
ЮЗ 1 10 км гроза без осадков 8/8 180 м
[Cb]
+22.0 +21.0 94 +28 +28 душно 1012.0 934.2
штиль 0 8000 м гроза без осадков ясно +22.0 +21.0 94 +28 +28 душно 1012.0 931.6
штиль 0 8000 м 8/8 180 м +21.0 +21.0 100 +26 +26 душно 1013.0 934.9
штиль 0 8000 м 5/5 180 м +21.0 +21.0 100 +26 +26 душно 1014.0 935.8
штиль 0 10 км 6/0
[Ci sp]
+27.5 +21.6 70 932.2 0.4 0.4
З 1 10 км ясно +27.3 +22.5 75 +36 +54 опасность
солнечного
удара
933.9
ЮВ 4 10 км ясно +30.3 +23.2 66 +41 +55 опасность
перегрева
932.4
ЮВ 10 5000 м гроза, ливневой дождь 10/6 480 м
[Cb cap Ac As]
+21.7 933.2
нст 1 6000 м гроза, ливневой дождь 5/5 300 м
[Cb]
+22.0 +20.0 88 +28 +28 душно 1013.0 935.1
штиль 0 6000 м гроза, ливневой дождь 5/5 300 м
[Cb]
+21.0 +20.0 94 +26 +26 душно 1012.0 933.9
нст 1 6000 м гроза, ливневой дождь 5/5 300 м
[Cb]
+21.0 +20.0 94 +27 +27 душно 1014.0 935.8
ЮЗ 2 6000 м гроза, ливневой дождь 5/5 300 м
[Cb]
+21.0 +20.0 94 +27 +27 душно 1015.0 936.7
нст 1 8000 м гроза без осадков 2/2 180 м
[Cb]
+21.0 +20.0 94 +27 +27 душно 1015.0 936.7
ЮЗ 1 8000 м 8/8 180 м +21.0 +20.0 94 +27 +27 душно 1015.0 936.7
нст 1 8000 м 5/5 180 м +21.0 +20.0 94 +27 +27 душно 1015.0 936.7
штиль 0 8000 м 2/2 180 м +21.0 +20.0 94 +26 +26 душно 1015.0 936.7
нст 1 3000 м дымка 8/8 180 м
[St]
+20.0 +20.0 100 +25 +25 комфорт 1015.0 936.4
штиль 0 4000 м дымка 8/8 180 м +20.0 +20.0 100 +23 +23 комфорт 1015.0 936.4
штиль 0 4000 м дымка 8/8 180 м +20.0 +20.0 100 +23 +24 комфорт 1016.0 937.4
З 2 4000 м дымка 8/8 180 м +21.0 +21.0 100 +27 +28 душно 1016.0 937.7
ЮЗ 2 7000 м 8/8 330 м +23.0 +23.0 100 +32 +34 очень
душно
1016.0 938.3
ЮЗ 3 8000 м ясно +25.3 +23.2 88 +34 +47 очень
душно
1016.0 935.2
нст 1 8000 м 5/5 390 м +27.0 +24.0 84 +37 +49 очень
душно
1016.0 939.3
Ю 2 8000 м 5/5 390 м +28.0 +23.0 74 +37 +48 очень
душно
1015.0 938.6
Ю 1 8000 м ясно +30.4 +23.1 65 +41 +65 опасность
перегрева
1014.0 933.5
Ю 2 8000 м 8/8 600 м +30.0 +23.0 66 +40 +43 очень
душно
1014.0 938.1
ЮВ 3 10 км 8/8 600 м +31.0 +22.0 59 +40 +42 очень
душно
1013.0 937.4
ЮЗ 6 10 км 6/5 420 м
[Cb calv Ci sp]
+23.2 1012.7 934.4
ЮВ 2 10 км 8/8 600 м +30.0 +22.0 62 +39 +39 очень
душно
1012.0 936.3
нст 1 10 км 8/8 600 м +29.0 +22.0 66 +37 +37 очень
душно
1012.0 936.0
З 4 10 км гроза без осадков 8/8 480 м
[Cb]
+27.0 +23.0 79 +36 +36 очень
душно
1013.0 936.5
СЗ 2 10 км гроза без осадков 5/5 390 м
[Cb]
+26.0 +23.0 84 +35 +35 очень
душно
1015.0 938.1
З 2 10 км гроза без осадков 5/5 300 м
[Cb]
+25.0 +22.0 83 +32 +32 очень
душно
1015.0 937.8
нст 1 10 км гроза без осадков 2/2 300 м
[Cb]
+24.0 +22.0 89 +31 +31 очень
душно
1016.0 938.5
З 2 10 км гроза без осадков 8/8 180 м
[Cb]
+24.0 +22.0 89 +31 +31 очень
душно
1016.0 938.5
З 3 10 км гроза без осадков 8/8 180 м
[Cb]
+23.0 +22.0 94 +31 +31 очень
душно
1016.0 938.2
З 4 10 км гроза без осадков 8/8 180 м
[Cb]
+23.0 +22.0 94 +31 +31 очень
душно
1015.0 937.3
ЮЗ 2 10 км гроза без осадков 8/8 180 м
[Cb]
+23.0 +22.0 94 +31 +31 очень
душно
1015.0 937.3
ЮЗ 3 10 км гроза без осадков 8/8 180 м
[Cb]
+23.0 +22.0 94 +31 +31 очень
душно
1015.0 937.3
ЮВ 3 10 км гроза без осадков 8/8 180 м
[Cb]
+22.0 +21.0 94 +28 +28 душно 1017.0 938.8
ЮВ 3 10 км гроза, ливневой дождь 8/8 90 м
[Cb]
+22.0 +21.0 94 +28 +28 душно 1017.0 938.8
ЮВ 2 8000 м гроза, ливневой дождь 5/5 90 м
[Cb]
+22.0 +21.0 94 +28 +29 душно 1018.0 939.8
Ю 2 8000 м гроза без осадков 5/5 180 м
[Cb]
+20.0 +19.0 94 +24 +26 комфорт 1018.0 939.2
штиль 0 8000 м гроза без осадков 5/5 180 м
[Cb]
+21.0 +20.0 94 +26 +32 душно 1019.0 940.4
ЮВ 2 9000 м в посл. час гроза 9/4 150 м
[Cu Sc Ac cuf]
+21.0 +20.0 94 +27 +34 душно 1019.0 940.4
ЮВ 3 10 км 5/5 180 м +22.0 +20.0 88 +28 +36 душно 1018.0 939.7
Ю 2 10 км 2/2 300 м +24.0 +21.0 83 +30 +48 очень
душно
1016.0 938.4
нст 1 10 км 2/2 300 м
[Cu hum Ac trans]
+26.0 +22.0 79 +34 +53 опасность
солнечного
удара
1014.0 937.1
С 2 10 км 2/2 390 м +26.0 +21.0 74 +33 +47 очень
душно
1014.0 937.1
С 3 10 км 2/2 600 м +26.0 +21.0 74 +33 +41 очень
душно
1013.0 936.2
СВ 6 12 км 6/4 480 м
[Cu med, cong Ac und Ci fib]
+26.0 +22.0 79 +34 +37 очень
душно
1012.0 935.3
СВ 3 10 км 2/2 480 м +25.0 +22.0 83 +32 +34 очень
душно
1012.0 935.0
С 3 10 км 2/2 390 м +24.0 +22.0 89 +31 +31 очень
душно
1013.0 935.7
СВ 2 8000 м 2/2 390 м +24.0 +22.0 89 +31 +31 очень
душно
1013.0 935.7
штиль 0 8000 м 2/2 180 м 1015.0
штиль 0 8000 м 2/2 180 м +22.0 +22.0 100 +29 +29 очень
душно
1016.0 938.0
штиль 0 8000 м 2/2 180 м +22.0 +22.0 100 +29 +29 очень
душно
1016.0 938.0
штиль 0 8000 м 2/2 180 м +21.0 +20.0 94 +26 +26 душно 1016.0 937.6
штиль 0 8000 м 2/2 180 м +21.0 +20.0 94 +26 +26 душно 1016.0 937.6
штиль 0 8000 м 2/2 180 м +21.0 +20.0 94 +26 +26 душно 1016.0 937.6
штиль 0 8000 м 2/2 180 м 1015.0
штиль 0 8000 м 2/2 180 м +21.0 +20.0 94 +26 +26 душно 1015.0 936.7
штиль 0 3000 м дымка ясно +20.0 +20.0 100 +23 +23 комфорт 1015.0 933.7
ЮВ 1 3000 м дымка 5/5 90 м
[Frnb]
+20.0 +20.0 100 +25 +25 комфорт 1015.0 936.4
штиль 0 2000 м дымка 5/5 90 м
[Frnb]
+20.0 +20.0 100 +23 +23 комфорт 1016.0 937.4
С 6 8000 м 9/4 90 м
[Frnb Ci fib]
+20.0 +19.0 94 +23 +23 комфорт 1016.0 937.3
нст 1 6000 м 8/8 180 м +21.0 +20.0 94 +27 +28 душно 1017.0 938.5
нст 1 8000 м 8/8 300 м +24.0 +22.0 89 +31 +33 очень
душно
1017.0 939.4
Ю 2 9000 м 8/3 240 м
[Cu Sc Ci sp]
+26.0 +22.0 79 +34 +37 очень
душно
1017.0 939.9
нст 1 10 км 8/8 600 м +28.0 +24.0 79 +39 +43 очень
душно
1016.0 939.6
ЮВ 2 10 км 8/8 600 м +29.0 +23.0 70 +39 +43 очень
душно
1015.0 938.8
З 4 12 км 8/8 480 м
[Cb cap Ci ing]
+31.0 +24.0 66 +43 +47 опасность
перегрева
1014.0 938.4
Ю 2 10 км 8/8 600 м +30.0 +23.0 66 +40 +43 очень
душно
1013.0 937.2
Ю 2 10 км 8/8 600 м +30.0 +23.0 66 +40 +42 очень
душно
1012.0 936.3
ЮВ 2 10 км ясно +30.5 +22.7 63 +41 +42 опасность
перегрева
нст 1 10 км 8/8 600 м +30.0 +22.0 62 +39 +39 очень
душно
1011.0 935.3
ЮВ 1 10 км 8/8 600 м +29.0 +23.0 70 +39 +39 очень
душно
1012.0 936.1
З 3 10 км гроза без осадков 8/8 270 м
[Cb]
+26.0 +23.0 84 +35 +35 очень
душно
1014.0 937.2
З 1 10 км гроза без осадков 8/8 270 м
[Cb]
+26.0 +23.0 84 +35 +35 очень
душно
1015.0 938.1
нст 1 10 км гроза без осадков 8/8 270 м
[Cb]
+24.0 +22.0 89 +31 +31 очень
душно
1015.0 937.5
нст 1 10 км 8/8 180 м +24.0 +22.0 89 +31 +31 очень
душно
1016.0 938.5
нст 1 10 км 8/8 180 м +23.0 +22.0 94 +31 +31 очень
душно
1015.0 937.3
З 2 8000 м 8/8 180 м +23.0 +22.0 94 +31 +31 очень
душно
1015.0 937.3
ЮЗ 2 8000 м 8/8 180 м +22.0 +21.0 94 +28 +28 душно 1014.0 936.1
З 3 8000 м 8/8 180 м +23.0 +22.0 94 +31 +31 очень
душно
1014.0 936.4
ЮЗ 2 8000 м ясно 933.3
штиль 0 8000 м гроза без осадков 8/8 180 м
[Cb]
+22.0 +21.0 94 +28 +28 душно 1015.0 937.0
Местоположение метеостанции Яунде (Камерун): широта 3.72 долгота 11.55 высота над уровнем моря 694 м.
В архиве по умолчанию представлена погода в Яунде за последнюю неделю. Архивные данные за месяц целиком и за предыдущие месяцы, начиная с января 2011 года, Вы можете получить, выбрав интересующий диапазон дат из раскрывающегося списка и нажав кнопку "Найти!".
*Определитесь, кто Вы:
Внимание! Время в таблицах - всемирное. Для получения местного времени необходимо прибавить поправку, которая равна 1 ч.
Смотрите также архив погоды в соседних городах и на ближайших метеорологических станциях:
Партнеры нашего сайта:      
Пояснения к столбцам:
  • Ветер - указаны скорость ветра в м/с - средняя за 10 мин, порывы в срок и между сроками (в фигурных скобках) и направление, откуда дует ветер: С - северный,
  • СВ - северо-восточный, В - восточный, ЮВ - юго-восточный, Ю - южный, ЮЗ - юго-западный, З - западный, СЗ - северо-западный.
  • Видимость - горизонтальная дальность видимости в метрах или километрах. При видимости от 1 до 10 км при отсутствии осадков обычно наблюдается дымка, при ухудшении видимости до 1 км и менее - туман. В сухую погоду видимость может ухудшаться дымом, пылью или мглою.
  • Явления - указаны атмосферные явления, наблюдавшиеся в срок или в последний час перед сроком; фигурными скобками обозначены явления, наблюдавшиеся между сроками (за 1-3 часа до срока); квадратными скобками обозначены град или гололедные отложения с указанием их диаметра в мм.
  • Облачность - указаны через наклонную черту общая и нижняя облачность в баллах и высота нижней границы облаков в метрах; квадратными скобками обозначены формы облаков: Ci - перистые, Cs - перисто-слоистые, Cc - перисто-кучевые, Ac - высококучевые, As - высокослоистые, Sc - слоисто-кучевые, Ns - слоисто-дождевые, Cu - кучевые, Cb - кучево-дождевые. Подробнее классификацию облаков см. в Атласе облаков (PDF).
  • T - Температура воздуха - температура, измеренная на высоте 2 м над землей.
  • Td - Температура точки росы - температура, при понижении до которой содержащийся в воздухе водяной пар достигнет насыщения.
  • f - Относительная влажность воздуха - влажноcть воздуха, измеренная на высоте 2 м над землей.
  • Te - Эффективная температура - температура, которую ощущает одетый по сезону человек в тени. Характеристика душности погоды. При расчете учитывается влияние влажности воздуха и скорости ветра на теплоощущения человека.
  • Tes - Эффективная температура на солнце - температура, которую ощущает человек, с поправкой на солнечный нагрев. Характеристика знойности погоды. Зависит от высоты солнца над горизонтом, облачности и скорости ветра. Ночью, в пасмурную погоду, а также при ветре 12 м/с и более поправка равна нулю.
  • P - Атмосферное давление - приведенное к уровню моря атмосферное давление.
  • Po - Атмосферное давление - измеренное на уровне метеостанции атмосферное давление.
  • Tmin - Минимальная температура - минимум температуры воздуха на высоте 2 м над землей.
  • Tmax - Максимальная температура - максимум температуры воздуха на высоте 2 м над землей.
  • R - Количество осадков - Количество выпавших осадков за период времени, мм. При наведении курсора мыши на число - период времени, за который выпало указанное количество осадков.
  • R24 - Количество осадков - Количество выпавших осадков за 24 часа, мм.
  • S - Снежный покров - Высота снежного покрова, см. При наведении курсора мыши на число - состояние снежного покрова и степень покрытия местности в баллах.